Flag for Germany Weather past 2 weeks in Lahr, Baden-Württemberg, Germany

Now
38 °F

Partly sunny.


Feels Like: 38 °F
Forecast: 31 / 47 °F
Wind: 2 mph from Northeast

Location: Lahr

Current Time: Mar 5, 2015 at 9:37:30 AM

Latest Report: Mar 5, 2015 at 9:00 AM


Visibility: 13 mi

Pressure: 30.64 "Hg

Humidity: 82%

Dew point: 33 °F

Location of LahrLocation

Historic Weather in Lahr — Graph

°F

Lahr temperature yesterday

Maximum temperature yesterday: 47 °F (at 4:00 PM)
Minimum temperature yesterday: 38 °F (at 5:00 AM)
Average temperature yesterday: 42 °F

Past Weeks' High & Low Weather Summary

 TemperatureHumidityPressure
High57 °F (Feb 20, 4:00 PM)100% (Feb 20, 3:00 AM)30.73 "Hg (Feb 20, 3:00 AM)
Low25 °F (Feb 20, 4:00 AM)26% (Feb 20, 9:00 PM)29.55 "Hg (Feb 23, 5:00 PM)
Average41 °F76%30.05 "Hg
* Reported Feb 18 8:00 AM — Mar 5 8:00 AM, Lahr, Weather by CustomWeather, © 2015

Note: Actual official high and low records may vary slightly from our data, if they occured in-between our weather recording intervals... More about our weather records

Advertising

Lahr weather history for previous 24 hours

 ConditionsComfort  
Time TempWeatherWind HumidityBarometerVisibility
8:00 AM
Thu, Mar 5
36 °FOvercast.1 mph85%30.63 "Hg14 mi
7:00 AM35 °FOvercast.1 mph86%30.62 "Hg13 mi
6:00 AM35 °FOvercast.1 mph86%30.60 "Hg17 mi
5:00 AM36 °FOvercast.1 mph83%30.58 "Hg15 mi
3:00 AM35 °FOvercast.No wind88%30.58 "Hg15 mi
2:00 AM33 °FOvercast.1 mph89%30.57 "Hg14 mi
1:00 AM35 °FPassing clouds.1 mph87%30.55 "Hg14 mi
12:00 AM37 °FPassing clouds.1 mph80%30.53 "Hg22 mi
11:00 PM
Wed, Mar 4
39 °FOvercast.2 mph77%30.52 "Hg25 mi
10:00 PM39 °FOvercast.2 mph77%30.49 "Hg18 mi
9:00 PM39 °FOvercast.2 mph71%30.47 "Hg31 mi
8:00 PM39 °FPassing clouds.1 mph70%30.45 "Hg34 mi
7:00 PM42 °FPassing clouds.3 mph62%30.43 "Hg37 mi
6:00 PM43 °FPassing clouds.2 mph56%30.40 "Hg43 mi
5:00 PM45 °FOvercast.2 mph51%30.38 "Hg43 mi
4:00 PM47 °FPartly sunny.5 mph44%30.37 "Hg43 mi
3:00 PM46 °FOvercast.3 mph47%30.37 "Hg43 mi
2:00 PM46 °FOvercast.6 mph45%30.38 "Hg43 mi
1:00 PM44 °FOvercast.5 mph55%30.39 "Hg43 mi
12:00 PM44 °FOvercast.6 mph59%30.38 "Hg31 mi
11:00 AM44 °FPartly sunny.3 mph62%30.38 "Hg31 mi
10:00 AM42 °FPartly sunny.2 mph72%30.37 "Hg31 mi
9:00 AM40 °FPartly sunny.2 mph77%30.36 "Hg31 mi
Weather by CustomWeather, © 2015

See weather overviewHow to use our weather pages